Time,TemperatureF,DewpointF,PressureIn,WindDirection,WindDirectionDegrees,WindSpeedMPH,WindSpeedGustMPH,Humidity,HourlyPrecipIn,Conditions,Clouds,dailyrainin,SoftwareType,DateUTC
2013-01-25 00:03:00,11.0,0.0,30.36,NW,312,3.0,-999.0,59,-99.99,,,-99.99,,2013-01-25 05:03:00,
2013-01-25 00:12:00,11.0,0.0,30.35,NW,312,4.0,-999.0,59,-99.99,,,-99.99,,2013-01-25 05:12:00,
2013-01-25 00:22:00,11.0,0.0,30.35,NW,312,4.0,-999.0,59,-99.99,,,-99.99,,2013-01-25 05:22:00,
2013-01-25 00:32:00,11.0,0.0,30.35,North,4,5.0,-999.0,59,-99.99,,,-99.99,,2013-01-25 05:32:00,
2013-01-25 00:43:00,11.0,0.0,30.35,North,4,5.0,-999.0,59,-99.99,,,-99.99,,2013-01-25 05:43:00,
2013-01-25 00:52:00,11.0,0.0,30.35,NNW,329,5.0,-999.0,59,-99.99,,,-99.99,,2013-01-25 05:52:00,
2013-01-25 01:02:00,11.0,0.0,30.35,NW,326,2.0,-999.0,59,-99.99,,,-99.99,,2013-01-25 06:02:00,
2013-01-25 01:11:00,11.0,0.0,30.35,NW,326,2.0,-999.0,59,-99.99,,,-99.99,,2013-01-25 06:11:00,
2013-01-25 01:21:00,11.0,0.0,30.35,NE,48,3.0,-999.0,59,-99.99,,,-99.99,,2013-01-25 06:21:00,
2013-01-25 01:32:00,11.0,0.0,30.35,NW,315,3.0,-999.0,59,-99.99,,,-99.99,,2013-01-25 06:32:00,
2013-01-25 01:42:00,11.0,0.0,30.35,NW,315,3.0,-999.0,59,-99.99,,,-99.99,,2013-01-25 06:42:00,
2013-01-25 01:52:00,11.0,0.0,30.35,North,8,3.0,-999.0,59,-99.99,,,-99.99,,2013-01-25 06:52:00,
2013-01-25 02:02:00,11.0,0.0,30.35,NW,317,3.0,-999.0,59,-99.99,,,-99.99,,2013-01-25 07:02:00,
2013-01-25 02:11:00,11.0,0.0,30.35,NW,317,3.0,-999.0,59,-99.99,,,-99.99,,2013-01-25 07:11:00,
2013-01-25 02:22:00,11.0,-1.0,30.35,NNE,29,3.0,-999.0,58,-99.99,,,-99.99,,2013-01-25 07:22:00,
2013-01-25 02:32:00,11.0,0.0,30.36,WNW,302,2.0,-999.0,59,-99.99,,,-99.99,,2013-01-25 07:32:00,
2013-01-25 02:42:00,11.0,0.0,30.36,WNW,302,2.0,-999.0,59,-99.99,,,-99.99,,2013-01-25 07:42:00,
2013-01-25 02:51:00,11.0,0.0,30.38,NNW,336,2.0,-999.0,59,-99.99,,,-99.99,,2013-01-25 07:51:00,
2013-01-25 03:02:00,10.0,-1.0,30.37,North,354,0.0,-999.0,60,-99.99,,,-99.99,,2013-01-25 08:02:00,
2013-01-25 03:12:00,10.0,-1.0,30.38,North,354,0.0,-999.0,61,-99.99,,,-99.99,,2013-01-25 08:12:00,
2013-01-25 03:21:00,10.0,-1.0,30.38,North,354,0.0,-999.0,61,-99.99,,,-99.99,,2013-01-25 08:21:00,
2013-01-25 03:32:00,10.0,-1.0,30.38,North,354,0.0,-999.0,61,-99.99,,,-99.99,,2013-01-25 08:32:00,
2013-01-25 03:42:00,10.0,-1.0,30.38,North,354,0.0,-999.0,61,-99.99,,,-99.99,,2013-01-25 08:42:00,
2013-01-25 03:52:00,10.0,0.0,30.37,NW,325,3.0,-999.0,63,-99.99,,,-99.99,,2013-01-25 08:52:00,
2013-01-25 04:02:00,10.0,0.0,30.37,North,354,2.0,-999.0,64,-99.99,,,-99.99,,2013-01-25 09:02:00,
2013-01-25 04:11:00,10.0,0.0,30.37,North,354,2.0,-999.0,64,-99.99,,,-99.99,,2013-01-25 09:11:00,
2013-01-25 04:21:00,10.0,1.0,30.37,NE,38,3.0,-999.0,65,-99.99,,,-99.99,,2013-01-25 09:21:00,
2013-01-25 04:32:00,10.0,1.0,30.37,NW,324,2.0,-999.0,65,-99.99,,,-99.99,,2013-01-25 09:32:00,
2013-01-25 04:42:00,10.0,1.0,30.37,NW,324,2.0,-999.0,65,-99.99,,,-99.99,,2013-01-25 09:42:00,
2013-01-25 04:51:00,9.0,0.0,30.37,NNW,333,2.0,-999.0,66,-99.99,,,-99.99,,2013-01-25 09:51:00,
2013-01-25 05:02:00,9.0,0.0,30.37,NNW,345,1.0,-999.0,66,-99.99,,,-99.99,,2013-01-25 10:02:00,
2013-01-25 05:12:00,9.0,0.0,30.37,NNW,345,1.0,-999.0,66,-99.99,,,-99.99,,2013-01-25 10:12:00,
2013-01-25 05:21:00,9.0,0.0,30.38,NW,317,1.0,-999.0,67,-99.99,,,-99.99,,2013-01-25 10:21:00,
2013-01-25 05:32:00,9.0,0.0,30.38,NNW,334,2.0,-999.0,66,-99.99,,,-99.99,,2013-01-25 10:32:00,
2013-01-25 05:42:00,9.0,0.0,30.38,NNW,334,2.0,-999.0,66,-99.99,,,-99.99,,2013-01-25 10:42:00,
2013-01-25 05:51:00,8.0,-1.0,30.38,NNW,330,1.0,-999.0,66,-99.99,,,-99.99,,2013-01-25 10:51:00,
2013-01-25 06:03:00,8.0,-1.0,30.37,NW,326,0.0,-999.0,66,-99.99,,,-99.99,,2013-01-25 11:03:00,
2013-01-25 06:11:00,8.0,-1.0,30.37,NW,326,0.0,-999.0,66,-99.99,,,-99.99,,2013-01-25 11:11:00,
2013-01-25 06:22:00,8.0,-1.0,30.38,NNW,343,1.0,-999.0,66,-99.99,,,-99.99,,2013-01-25 11:22:00,
2013-01-25 06:33:00,8.0,-1.0,30.38,NNE,15,2.0,-999.0,66,-99.99,,,-99.99,,2013-01-25 11:33:00,
2013-01-25 06:42:00,8.0,-1.0,30.38,NNE,15,2.0,-999.0,66,-99.99,,,-99.99,,2013-01-25 11:42:00,
2013-01-25 06:52:00,8.0,-1.0,30.38,NNW,347,1.0,-999.0,65,-99.99,,,-99.99,,2013-01-25 11:52:00,
2013-01-25 07:03:00,8.0,-1.0,30.39,WNW,290,0.0,-999.0,66,-99.99,,,-99.99,,2013-01-25 12:03:00,
2013-01-25 07:12:00,8.0,-1.0,30.39,WNW,290,0.0,-999.0,66,-99.99,,,-99.99,,2013-01-25 12:12:00,
2013-01-25 07:22:00,8.0,-1.0,30.40,West,268,0.0,-999.0,67,-99.99,,,-99.99,,2013-01-25 12:22:00,
2013-01-25 07:32:00,8.0,0.0,30.40,WNW,302,0.0,-999.0,68,-99.99,,,-99.99,,2013-01-25 12:32:00,
2013-01-25 07:42:00,8.0,0.0,30.40,WNW,302,0.0,-999.0,68,-99.99,,,-99.99,,2013-01-25 12:42:00,
2013-01-25 07:53:00,8.0,0.0,30.40,WNW,303,2.0,-999.0,68,-99.99,,,-99.99,,2013-01-25 12:53:00,
2013-01-25 08:03:00,8.0,-1.0,30.39,North,354,1.0,-999.0,67,-99.99,,,-99.99,,2013-01-25 13:03:00,
2013-01-25 08:12:00,8.0,-1.0,30.39,North,354,1.0,-999.0,67,-99.99,,,-99.99,,2013-01-25 13:12:00,
2013-01-25 08:22:00,9.0,0.0,30.40,NNW,344,3.0,-999.0,66,-99.99,,,-99.99,,2013-01-25 13:22:00,
2013-01-25 08:33:00,9.0,-1.0,30.40,North,354,3.0,-999.0,64,-99.99,,,-99.99,,2013-01-25 13:33:00,
2013-01-25 08:42:00,9.0,-1.0,30.40,North,354,3.0,-999.0,64,-99.99,,,-99.99,,2013-01-25 13:42:00,
2013-01-25 08:52:00,9.0,-1.0,30.39,NNE,14,2.0,-999.0,62,-99.99,,,-99.99,,2013-01-25 13:52:00,
2013-01-25 09:03:00,10.0,-1.0,30.39,NE,47,3.0,-999.0,60,-99.99,,,-99.99,,2013-01-25 14:03:00,
2013-01-25 09:12:00,10.0,-1.0,30.39,NE,47,3.0,-999.0,60,-99.99,,,-99.99,,2013-01-25 14:12:00,
2013-01-25 09:23:00,11.0,0.0,30.39,North,354,4.0,-999.0,59,-99.99,,,-99.99,,2013-01-25 14:23:00,
2013-01-25 09:33:00,11.0,0.0,30.39,NNE,20,2.0,-999.0,59,-99.99,,,-99.99,,2013-01-25 14:33:00,
2013-01-25 09:42:00,11.0,0.0,30.39,NNE,20,2.0,-999.0,59,-99.99,,,-99.99,,2013-01-25 14:42:00,
2013-01-25 09:53:00,12.0,0.0,30.39,NW,312,2.0,-999.0,59,-99.99,,,-99.99,,2013-01-25 14:53:00,
2013-01-25 10:03:00,12.0,-1.0,30.39,NNW,343,2.0,-999.0,56,-99.99,,,-99.99,,2013-01-25 15:03:00,
2013-01-25 10:12:00,12.0,-1.0,30.39,NNW,343,2.0,-999.0,56,-99.99,,,-99.99,,2013-01-25 15:12:00,
2013-01-25 10:22:00,13.0,0.0,30.39,North,9,2.0,-999.0,54,-99.99,,,-99.99,,2013-01-25 15:22:00,
2013-01-25 10:33:00,13.0,-2.0,30.39,NNE,29,4.0,-999.0,51,-99.99,,,-99.99,,2013-01-25 15:33:00,
2013-01-25 10:42:00,13.0,-2.0,30.39,NNE,29,4.0,-999.0,51,-99.99,,,-99.99,,2013-01-25 15:42:00,
2013-01-25 10:52:00,14.0,-1.0,30.38,NE,34,2.0,-999.0,50,-99.99,,,-99.99,,2013-01-25 15:52:00,
2013-01-25 11:03:00,15.0,-2.0,30.39,WNW,292,3.0,-999.0,47,-99.99,,,-99.99,,2013-01-25 16:03:00,
2013-01-25 11:12:00,15.0,-2.0,30.39,WNW,292,3.0,-999.0,47,-99.99,,,-99.99,,2013-01-25 16:12:00,
2013-01-25 11:23:00,16.0,-2.0,30.38,NNW,330,3.0,-999.0,44,-99.99,,,-99.99,,2013-01-25 16:23:00,
2013-01-25 11:33:00,16.0,-1.0,30.38,North,354,2.0,-999.0,47,-99.99,,,-99.99,,2013-01-25 16:33:00,
2013-01-25 11:43:00,16.0,-1.0,30.38,North,354,2.0,-999.0,47,-99.99,,,-99.99,,2013-01-25 16:43:00,
2013-01-25 11:52:00,17.0,-2.0,30.36,West,270,1.0,-999.0,43,-99.99,,,-99.99,,2013-01-25 16:52:00,
2013-01-25 12:03:00,17.0,-3.0,30.34,NW,321,3.0,-999.0,41,-99.99,,,-99.99,,2013-01-25 17:03:00,
2013-01-25 12:12:00,17.0,-3.0,30.34,NW,321,3.0,-999.0,41,-99.99,,,-99.99,,2013-01-25 17:12:00,
2013-01-25 12:22:00,17.0,-3.0,30.34,North,359,1.0,-999.0,40,-99.99,,,-99.99,,2013-01-25 17:22:00,
2013-01-25 12:33:00,18.0,-1.0,30.32,NW,313,1.0,-999.0,42,-99.99,,,-99.99,,2013-01-25 17:33:00,
2013-01-25 12:43:00,18.0,-1.0,30.32,NW,313,1.0,-999.0,42,-99.99,,,-99.99,,2013-01-25 17:43:00,
2013-01-25 12:52:00,19.0,-1.0,30.30,NNW,335,1.0,-999.0,40,-99.99,,,-99.99,,2013-01-25 17:52:00,
2013-01-25 13:03:00,19.0,-1.0,30.29,NW,308,1.0,-999.0,41,-99.99,,,-99.99,,2013-01-25 18:03:00,
2013-01-25 13:12:00,19.0,-1.0,30.29,NW,308,1.0,-999.0,41,-99.99,,,-99.99,,2013-01-25 18:12:00,
2013-01-25 13:23:00,19.0,-1.0,30.28,NNW,330,1.0,-999.0,40,-99.99,,,-99.99,,2013-01-25 18:23:00,
2013-01-25 13:33:00,19.0,-1.0,30.27,NNE,32,1.0,-999.0,40,-99.99,,,-99.99,,2013-01-25 18:33:00,
2013-01-25 13:42:00,19.0,-1.0,30.27,NNE,32,1.0,-999.0,40,-99.99,,,-99.99,,2013-01-25 18:42:00,
2013-01-25 13:52:00,20.0,-1.0,30.27,NW,322,2.0,-999.0,39,-99.99,,,-99.99,,2013-01-25 18:52:00,
2013-01-25 14:03:00,20.0,-2.0,30.26,NNW,335,1.0,-999.0,37,-99.99,,,-99.99,,2013-01-25 19:03:00,
2013-01-25 14:12:00,20.0,-2.0,30.26,NNW,335,1.0,-999.0,37,-99.99,,,-99.99,,2013-01-25 19:12:00,
2013-01-25 14:22:00,20.0,-1.0,30.26,WSW,252,1.0,-999.0,38,-99.99,,,-99.99,,2013-01-25 19:22:00,
2013-01-25 14:33:00,20.0,-1.0,30.26,WNW,294,1.0,-999.0,39,-99.99,,,-99.99,,2013-01-25 19:33:00,
2013-01-25 14:42:00,20.0,-1.0,30.26,WNW,294,1.0,-999.0,39,-99.99,,,-99.99,,2013-01-25 19:42:00,
2013-01-25 14:52:00,20.0,-1.0,30.25,West,268,0.0,-999.0,38,-99.99,,,-99.99,,2013-01-25 19:52:00,
2013-01-25 15:03:00,20.0,-1.0,30.25,West,274,0.0,-999.0,39,-99.99,,,-99.99,,2013-01-25 20:03:00,
2013-01-25 15:12:00,20.0,-1.0,30.25,West,274,0.0,-999.0,39,-99.99,,,-99.99,,2013-01-25 20:12:00,
2013-01-25 15:23:00,20.0,-1.0,30.24,West,266,0.0,-999.0,39,-99.99,,,-99.99,,2013-01-25 20:23:00,
2013-01-25 15:32:00,20.0,0.0,30.22,West,267,0.0,-999.0,40,-99.99,,,-99.99,,2013-01-25 20:32:00,
2013-01-25 15:42:00,20.0,0.0,30.22,West,267,0.0,-999.0,40,-99.99,,,-99.99,,2013-01-25 20:42:00,
2013-01-25 15:52:00,20.0,0.0,30.23,West,266,0.0,-999.0,40,-99.99,,,-99.99,,2013-01-25 20:52:00,
2013-01-25 16:02:00,19.0,-1.0,30.22,West,267,0.0,-999.0,40,-99.99,,,-99.99,,2013-01-25 21:02:00,
2013-01-25 16:12:00,19.0,-1.0,30.22,West,267,0.0,-999.0,40,-99.99,,,-99.99,,2013-01-25 21:12:00,
2013-01-25 16:23:00,19.0,0.0,30.22,West,268,0.0,-999.0,42,-99.99,,,-99.99,,2013-01-25 21:23:00,
2013-01-25 16:33:00,19.0,0.0,30.22,West,268,0.0,-999.0,42,-99.99,,,-99.99,,2013-01-25 21:33:00,
2013-01-25 16:42:00,19.0,0.0,30.22,West,268,0.0,-999.0,42,-99.99,,,-99.99,,2013-01-25 21:42:00,
2013-01-25 16:52:00,19.0,0.0,30.22,West,274,0.0,-999.0,42,-99.99,,,-99.99,,2013-01-25 21:52:00,
2013-01-25 17:03:00,19.0,0.0,30.21,West,272,0.0,-999.0,43,-99.99,,,-99.99,,2013-01-25 22:03:00,
2013-01-25 17:12:00,19.0,0.0,30.21,West,272,0.0,-999.0,43,-99.99,,,-99.99,,2013-01-25 22:12:00,
2013-01-25 17:22:00,18.0,0.0,30.20,West,274,0.0,-999.0,45,-99.99,,,-99.99,,2013-01-25 22:22:00,
2013-01-25 17:33:00,18.0,0.0,30.20,West,274,0.0,-999.0,44,-99.99,,,-99.99,,2013-01-25 22:33:00,
2013-01-25 17:42:00,18.0,0.0,30.20,West,274,0.0,-999.0,44,-99.99,,,-99.99,,2013-01-25 22:42:00,
2013-01-25 17:52:00,18.0,0.0,30.18,West,274,0.0,-999.0,45,-99.99,,,-99.99,,2013-01-25 22:52:00,
2013-01-25 18:02:00,18.0,0.0,30.18,West,274,0.0,-999.0,44,-99.99,,,-99.99,,2013-01-25 23:02:00,
2013-01-25 18:12:00,18.0,0.0,30.18,West,274,0.0,-999.0,44,-99.99,,,-99.99,,2013-01-25 23:12:00,
2013-01-25 18:22:00,18.0,0.0,30.18,West,274,0.0,-999.0,45,-99.99,,,-99.99,,2013-01-25 23:22:00,
2013-01-25 18:32:00,18.0,0.0,30.18,West,274,0.0,-999.0,45,-99.99,,,-99.99,,2013-01-25 23:32:00,
2013-01-25 18:42:00,18.0,0.0,30.18,West,274,0.0,-999.0,45,-99.99,,,-99.99,,2013-01-25 23:42:00,
2013-01-25 18:52:00,18.0,0.0,30.17,West,274,0.0,-999.0,45,-99.99,,,-99.99,,2013-01-25 23:52:00,
2013-01-25 19:02:00,18.0,0.0,30.16,West,274,0.0,-999.0,45,-99.99,,,-99.99,,2013-01-26 00:02:00,
2013-01-25 19:11:00,18.0,0.0,30.16,West,274,0.0,-999.0,45,-99.99,,,-99.99,,2013-01-26 00:11:00,
2013-01-25 19:22:00,18.0,0.0,30.15,West,274,0.0,-999.0,45,-99.99,,,-99.99,,2013-01-26 00:22:00,
2013-01-25 19:32:00,18.0,1.0,30.15,West,274,0.0,-999.0,47,-99.99,,,-99.99,,2013-01-26 00:32:00,
2013-01-25 19:42:00,18.0,1.0,30.15,West,274,0.0,-999.0,47,-99.99,,,-99.99,,2013-01-26 00:42:00,
2013-01-25 19:53:00,18.0,3.0,30.14,West,274,0.0,-999.0,50,-99.99,,,-99.99,,2013-01-26 00:53:00,
2013-01-25 20:02:00,18.0,6.0,30.14,West,274,0.0,-999.0,58,-99.99,,,-99.99,,2013-01-26 01:02:00,
2013-01-25 20:12:00,18.0,6.0,30.14,West,274,0.0,-999.0,58,-99.99,,,-99.99,,2013-01-26 01:12:00,
2013-01-25 20:22:00,18.0,8.0,30.13,West,274,0.0,-999.0,63,-99.99,,,-99.99,,2013-01-26 01:22:00,
2013-01-25 20:32:00,17.0,8.0,30.13,West,274,0.0,-999.0,66,-99.99,,,-99.99,,2013-01-26 01:32:00,
2013-01-25 20:42:00,17.0,8.0,30.13,West,274,0.0,-999.0,66,-99.99,,,-99.99,,2013-01-26 01:42:00,
2013-01-25 20:52:00,17.0,9.0,30.12,West,274,0.0,-999.0,70,-99.99,,,-99.99,,2013-01-26 01:52:00,
2013-01-25 21:02:00,17.0,10.0,30.12,West,274,0.0,-999.0,73,-99.99,,,-99.99,,2013-01-26 02:02:00,
2013-01-25 21:11:00,17.0,10.0,30.12,West,274,0.0,-999.0,73,-99.99,,,-99.99,,2013-01-26 02:11:00,
2013-01-25 21:22:00,16.0,9.0,30.12,West,274,0.0,-999.0,75,-99.99,,,-99.99,,2013-01-26 02:22:00,
2013-01-25 21:32:00,16.0,10.0,30.11,West,274,0.0,-999.0,76,-99.99,,,-99.99,,2013-01-26 02:32:00,
2013-01-25 21:42:00,16.0,10.0,30.11,West,274,0.0,-999.0,76,-99.99,,,-99.99,,2013-01-26 02:42:00,
2013-01-25 21:52:00,16.0,10.0,30.11,West,274,0.0,-999.0,77,-99.99,,,-99.99,,2013-01-26 02:52:00,
2013-01-25 22:02:00,16.0,10.0,30.10,West,274,0.0,-999.0,78,-99.99,,,-99.99,,2013-01-26 03:02:00,
2013-01-25 22:12:00,16.0,10.0,30.10,West,274,0.0,-999.0,78,-99.99,,,-99.99,,2013-01-26 03:12:00,
2013-01-25 22:22:00,16.0,11.0,30.10,West,274,0.0,-999.0,80,-99.99,,,-99.99,,2013-01-26 03:22:00,
2013-01-25 22:32:00,16.0,11.0,30.09,West,274,0.0,-999.0,81,-99.99,,,-99.99,,2013-01-26 03:32:00,
2013-01-25 22:43:00,16.0,11.0,30.09,West,274,0.0,-999.0,81,-99.99,,,-99.99,,2013-01-26 03:43:00,
2013-01-25 22:52:00,16.0,11.0,30.08,West,274,0.0,-999.0,82,-99.99,,,-99.99,,2013-01-26 03:52:00,
2013-01-25 23:02:00,15.0,11.0,30.09,West,274,0.0,-999.0,82,-99.99,,,-99.99,,2013-01-26 04:02:00,
2013-01-25 23:12:00,15.0,11.0,30.09,West,274,0.0,-999.0,82,-99.99,,,-99.99,,2013-01-26 04:12:00,
2013-01-25 23:21:00,15.0,11.0,30.09,West,274,0.0,-999.0,82,-99.99,,,-99.99,,2013-01-26 04:21:00,
2013-01-25 23:32:00,15.0,11.0,30.09,West,274,0.0,-999.0,83,-99.99,,,-99.99,,2013-01-26 04:32:00,
2013-01-25 23:42:00,15.0,11.0,30.09,West,274,0.0,-999.0,83,-99.99,,,-99.99,,2013-01-26 04:42:00,
2013-01-25 23:52:00,15.0,11.0,30.08,West,274,0.0,-999.0,83,-99.99,,,-99.99,,2013-01-26 04:52:00,